TimeCDT,TemperatureF,Dew PointF,Humidity,Sea Level PressureIn,VisibilityMPH,Wind Direction,Wind SpeedMPH,Gust SpeedMPH,PrecipitationIn,Events,Conditions,WindDirDegrees,DateUTC
12:54 AM,75.0,72.0,90,29.83,10.0,SSE,4.6,-,N/A,,Clear,160,2013-08-07 05:54:00
1:54 AM,75.9,72.0,87,29.82,10.0,South,6.9,-,N/A,,Scattered Clouds,180,2013-08-07 06:54:00
2:54 AM,75.9,72.0,87,29.82,10.0,SSW,5.8,-,N/A,,Clear,210,2013-08-07 07:54:00
3:54 AM,73.9,72.0,93,29.79,10.0,SE,3.5,-,N/A,,Clear,130,2013-08-07 08:54:00
4:54 AM,75.0,72.0,90,29.80,10.0,South,4.6,-,N/A,,Clear,170,2013-08-07 09:54:00
5:54 AM,73.9,70.0,87,29.80,10.0,SSW,3.5,-,N/A,,Clear,200,2013-08-07 10:54:00
6:54 AM,73.9,68.0,82,29.87,10.0,WSW,11.5,-,N/A,,Clear,240,2013-08-07 11:54:00
7:54 AM,73.0,66.9,81,29.88,10.0,SW,12.7,19.6,0.00,Rain,Light Rain,220,2013-08-07 12:54:00
8:54 AM,72.0,68.0,87,29.88,10.0,SW,11.5,-,0.00,,Mostly Cloudy,220,2013-08-07 13:54:00
9:54 AM,73.9,68.0,82,29.85,10.0,WSW,9.2,-,N/A,,Overcast,240,2013-08-07 14:54:00
10:54 AM,78.1,68.0,71,29.87,10.0,West,9.2,-,N/A,,Mostly Cloudy,260,2013-08-07 15:54:00
11:54 AM,81.0,66.9,62,29.86,10.0,WSW,6.9,-,N/A,,Mostly Cloudy,250,2013-08-07 16:54:00
12:54 PM,82.9,68.0,60,29.86,10.0,WSW,10.4,-,N/A,,Mostly Cloudy,240,2013-08-07 17:54:00
1:54 PM,86.0,66.9,53,29.85,10.0,WSW,10.4,-,N/A,,Mostly Cloudy,240,2013-08-07 18:54:00
2:54 PM,88.0,66.9,49,29.83,10.0,WSW,8.1,-,N/A,,Scattered Clouds,250,2013-08-07 19:54:00
3:54 PM,88.0,68.0,51,29.82,10.0,WNW,10.4,-,N/A,,Scattered Clouds,290,2013-08-07 20:54:00
4:54 PM,88.0,69.1,53,29.83,10.0,West,8.1,-,N/A,,Scattered Clouds,280,2013-08-07 21:54:00
5:54 PM,87.1,69.1,55,29.84,10.0,WNW,6.9,-,N/A,,Scattered Clouds,290,2013-08-07 22:54:00
6:54 PM,84.9,71.1,63,29.85,10.0,SW,4.6,-,N/A,,Scattered Clouds,220,2013-08-07 23:54:00
7:54 PM,80.1,71.1,74,29.86,10.0,WSW,4.6,-,N/A,,Scattered Clouds,240,2013-08-08 00:54:00
8:54 PM,78.1,72.0,81,29.86,10.0,Calm,Calm,-,N/A,,Partly Cloudy,0,2013-08-08 01:54:00
9:54 PM,75.9,72.0,87,29.89,10.0,Calm,Calm,-,N/A,,Scattered Clouds,0,2013-08-08 02:54:00
10:54 PM,75.0,72.0,90,29.89,10.0,Calm,Calm,-,N/A,,Partly Cloudy,0,2013-08-08 03:54:00
11:54 PM,73.0,71.1,93,29.90,10.0,Calm,Calm,-,N/A,,Scattered Clouds,0,2013-08-08 04:54:00